This is the latest recevied weather packets stored in our database for station/object K5MGY. If no packets are shown the sender has not sent any weather packets the latest 10 day(s).
| Time | Temp. | Humidity | Pressure | Rain* | Wind** | Luminosity | Snow |
|---|---|---|---|---|---|---|---|
| 1778158081 | 12.22° C | 91% | 1044.7 hPa | 0 mm | - | 33 W/m² | - |
| 1778157777 | 12.22° C | 92% | 1044.5 hPa | 0 mm | - | 31 W/m² | - |
| 1778157476 | 12.22° C | 92% | 1044.8 hPa | 0 mm | - | 30 W/m² | - |
| 1778157173 | 11.67° C | 92% | 1044.6 hPa | 0 mm | - | 22 W/m² | - |
| 1778156868 | 11.67° C | 92% | 1044.4 hPa | 0 mm | - | 19 W/m² | - |
| 1778156564 | 11.67° C | 92% | 1044.1 hPa | 0 mm | - | 20 W/m² | - |
| 1778156260 | 11.67° C | 92% | 1044.2 hPa | 0 mm | - | 18 W/m² | - |
| 1778155956 | 11.67° C | 92% | 1044.3 hPa | 0 mm | - | 11 W/m² | - |
| 1778155652 | 11.67° C | 92% | 1044.3 hPa | 0 mm | - | 9 W/m² | - |
| 1778155350 | 11.67° C | 92% | 1044.5 hPa | 0 mm | - | 7 W/m² | - |
| 1778155046 | 11.67° C | 92% | 1044.5 hPa | 0 mm | - | 6 W/m² | - |
| 1778154742 | 11.67° C | 92% | 1044.4 hPa | 0 mm | - | 4 W/m² | - |
| 1778154437 | 11.67° C | 92% | 1044.2 hPa | 0 mm | - | 3 W/m² | - |
| 1778154135 | 11.67° C | 92% | 1044.3 hPa | 0 mm | - | 2 W/m² | - |
| 1778153832 | 11.11° C | 92% | 1044.1 hPa | 0 mm | - | 1 W/m² | - |
| 1778153529 | 11.11° C | 91% | 1044.2 hPa | 0 mm | - | 1 W/m² | - |
| 1778153227 | 11.11° C | 91% | 1044.1 hPa | 0 mm | - | 0 W/m² | - |
| 1778152923 | 11.11° C | 91% | 1043.8 hPa | 0 mm | - | 0 W/m² | - |
| 1778152621 | 11.11° C | 91% | 1043.7 hPa | 0 mm | - | 0 W/m² | - |
| 1778152317 | 11.11° C | 91% | 1043.8 hPa | 0 mm | - | 0 W/m² | - |
| 1778152013 | 11.11° C | 91% | 1043.6 hPa | 0 mm | - | 0 W/m² | - |
| 1778151710 | 11.11° C | 91% | 1043.6 hPa | 0 mm | - | 0 W/m² | - |
| 1778151407 | 11.11° C | 90% | 1043.8 hPa | 0 mm | - | 0 W/m² | - |
| 1778151103 | 11.11° C | 90% | 1043.8 hPa | 0 mm | - | 0 W/m² | - |
| 1778150801 | 11.67° C | 90% | 1043.4 hPa | 0 mm | - | 0 W/m² | - |
* Rain latest hour (hover to see other rain measurements)
** Current wind speed in m/s (hover to see current wind gust speed)